星链-11243 (STARLINK-11243)

导读

STARLINK-11243是美国于2024年8月31日发射的星链卫星,隶属于SpaceX打造的星链星座系统。该星座旨在为全球用户提供低延迟、高速率的宽带互联网覆盖,此颗卫星升空后,进一步扩充了星链低轨卫星网络规模,助力提升星座服务覆盖范围与通信服务性能。

Basic Information
目录编号:
60927
目录名称:
STARLINK-11243
国际标识:
2024-155D
轨道中心:
EARTH
卫星名称:
星链-11243
卫星全名:
星链-11243 (STARLINK-11243)
卫星状态:
在轨 (已飞行735 天)
发射日期:
2024-08-31 UTC
国别 :
美国 (US)
星等 :
--
Orbit Information
数据来源 国际轨道数据
星历时间: 2026-09-05T03:27:57+0800
14小时前
查看轨道信息
半长轴: 6737.892km
偏心率: 0.0001109
轨道倾角: 53.159°
近地点辐角 57.252°
升交点赤经 178.384°
平近点角 302.861°
近地点: 359.007km
远地点: 360.503km
周期: 91.737分钟
每日圈数: 15.697003
Detailed Information
固有亮度:
5
最大亮度:
2.5
卫星平台:
Starlink V1.0
覆盖范围:
全球
运营商:
太空探索技术公司
运营商所在国:
美国
制造商(研发单位):
太空探索技术公司
制造商所在国:
美国
使用方式:
暂无
Satellite Introduction
Starlink 计划是 SpaceX 推出的全球卫星互联网项目,通过发射低轨道卫星,为全球尤其是偏远地区提供高速、低延迟的互联网服务。自 2019 年起,Starlink 已部署数千颗卫星,旨在缩小全球数字鸿沟,推动互联网普及。该项目还为军事、航空等行业提供通信支持,带来广泛经济效益。
2D Orbit Map
3D Orbit Map
Orbit Altitude Analysis Chart
Orbit Inclination Analysis Chart
Orbit Comprehensive Analysis Chart
View Comprehensive Chart
Conjunction Data List
Event ID Objects TCA Miss Dist (km) Collision Risk Probability Collision Risk Index (CRI) Action
CDM_260907-060606-092706-174521
2026-09-07T
06:06:24+0000
2.869 km
极远距离
9.354592E-7 极低风险 0.34